Location: Arcones
(41.1182°N, 3.7238°W)
Time: 21:31:02
(UTC+00:00)

Cosmos 2082 - Visible Passes

Search period start: 16 March 2026 00:00
Search period end: 26 March 2026 00:00
Orbit: 832 x 854 km, 71.0° (Epoch: 16 March)

Date Brightness Start Highest point End Pass type
(mag) Time Alt. Az. Time Alt. Az. Time Alt. Az.
17 Mar 6.6 23:08:33 10° NNW 23:08:44 11° NNW 23:08:44 11° NNW visible
18 Mar 6.4 22:53:51 10° NNW 22:54:25 13° NNW 22:54:25 13° NNW visible
19 Mar 6.2 22:39:08 10° NNW 22:40:06 15° NNW 22:40:06 15° NNW visible
20 Mar 6.0 22:24:25 10° NNW 22:25:49 18° N 22:25:49 18° N visible
21 Mar 5.8 22:09:43 10° NNW 22:11:34 21° N 22:11:34 21° N visible
22 Mar 5.5 21:55:01 10° NNW 21:57:19 24° N 21:57:19 24° N visible
23 Mar 5.3 21:40:19 10° NNW 21:43:06 27° N 21:43:06 27° N visible
24 Mar 5.0 21:25:37 10° NNW 21:28:55 31° NNE 21:28:55 31° NNE visible
24 Mar 6.4 23:10:12 10° NW 23:10:46 12° NW 23:10:46 12° NW visible
25 Mar 4.7 21:10:56 10° N 21:14:46 35° NNE 21:14:46 35° NNE visible
25 Mar 6.2 22:55:25 10° NW 22:56:37 15° NW 22:56:37 15° NW visible
